Showing default

OPS 9324 (IDSCS 11), 2651

Orbit data source: Space-Track

OPS 9324 (IDSCS 11), 2651 is a payload satellite owned by USAF SSD (US) in GEO that was launched on Wed, 18 Jan 1967 UTC via a TITAN IIIC launch vehicle from the Air Force Eastern Test Range (AFETR). Payload-class satellites include a variety of spacecraft equipped with specific instruments for various scientific and technological missions. These include communications satellites like Starlink; space stations such as the ISS; scientific satellites like the Hubble; Earth observation satellites from companies like Planet Labs, Umbra, and HawkEye 360; GPS; miniature CubeSats for education and research; and military/defense satellites.

Not visible in the next 10 days
Identifier
2651, 1967-003D
Orbit
GEO
Country
Flag of USUS
Related business
Manufacturer
Philco-Ford WDL
Mission
Non-operational spacecraft
Bus & Motor
IDCSP, Unknown motor
Mass
45 kg wet, 45 kg dry
Launch date (UTC)
1967-01-18 (59 years ago)
Launch vehicle
TITAN IIIC
Launch site
Air Force Eastern Test Range (AFETR)
Object type
Payload
Rocket body
Debris
Shape & HBR
Unknown
Radar Cross Section
Medium (>0.1 m² and <1 m²)

Expand to show TLE details & history
Last TLE update: 2 days ago

TLE from 2 days ago
0 OPS 9324 (IDSCS 11)
1 02651U 67003D   25308.96709894 -.00000063  00000-0  00000-0 0  9990
2 02651   7.8444  47.1678 0034278  94.7807 266.7879  1.08104891138329
Epoch: 2025-11-04T23:12Z
TLE epoch observation values (Epoch: 2025-11-04T23:12:37.348Z)
Latitude
0.17252°
Longitude
15.70126°
Altitude
33,732.352 km
Speed
3.152 km/s
True Right ascension
03h 13m 12s
True Declination
0° 10' 20"
Sunlit
Object was in daylight at epoch
Visualization orbit readout
Latitude
Unknown
Longitude
Unknown
Altitude
Unknown
Speed
Unknown
Apparent Right ascension
Unknown
Apparent Declination
Unknown
Sunlit
N/A
Visualization observer readout
Local Sidereal Time
20:47:09
Azimuth
Unknown
Elevation
Unknown
Doppler factor
Unknown
Orbital elements
Apogee altitude
33,862.938 km
Perigee altitude
33,588.003 km
Semi-major axis
40,103.607 km
Eccentricity
0.00343
Inclination
7.8444°
RAAN
47.1678°
Arg. of periapsis
94.7807°
True anomaly
266.39582°
Mean anomaly
266.7879°
Eccentric anomaly
266.59185°
Mean motion
0.27025 °/min
Orbital period
1,332.09 mins
BSTAR
0
Loading maneuver chart data...
Computing Atmospheric mass density...
Loading historical data...
Loading historical data...
Loading historical data...
Loading historical data...
Loading historical data...
Loading historical data...
Loading historical data...

Documentation

Showing up to 5 results
|